Theta_e
295 297 299 298 298 299 297 297 292 296 296 300 303 303 305 306 306 306 307 308 308 308 307 309 310 311 314 314 311 309 310 311 311 311 310 309 308 307 307 304 304 303 303 301
293 298 300 298 299 299 299 299 298 298 297 304 306 305 305 306 306 306 307 307 308 308 308 308 309 309 305 307 308 309 309 309 309 308 307 306 305 303 301 299 298 298 297 297
290 296 297 291 297 299 299 301 299 294 299 303 304 305 305 306 307 306 308 308 307 308 307 305 305 304 306 306 307 308 308 308 307 306 304 302 301 298 294 291 290 290 290 293
289 292 284 296 302 302 300 300 302 301 302 304 304 306 307 306 305 306 307 308 307 306 304 304 305 305 305 306 304 303 301 299 301 299 295 293 291 289 288 288 287 287 288 288
286 288 291 294 298 300 296 296 301 299 300 301 303 303 301 305 307 307 307 307 304 305 305 304 304 305 304 301 299 296 291 290 290 290 288 287 286 286 286 286 286 286 286 287
286 284 283 288 298 301 301 286 299 300 300 301 301 294 296 304 305 304 305 304 304 304 305 304 303 302 299 291 291 289 288 288 288 288 287 286 286 286 285 286 286 286 285 286
284 284 286 296 300 302 287 287 301 301 301 300 296 297 300 302 303 304 304 304 305 304 303 303 303 302 296 292 292 289 287 287 287 287 287 286 286 286 285 285 285 285 285 285
284 284 280 300 299 293 296 299 299 299 301 300 300 301 301 301 301 302 302 303 303 301 300 300 298 296 290 288 288 287 287 286 286 287 286 287 286 286 286 285 285 285 284 284
290 289 297 300 299 301 302 298 298 298 301 301 300 299 300 298 298 299 301 301 302 300 299 298 296 294 291 290 288 287 286 286 286 286 286 286 286 285 285 285 284 284 284 283
292 296 298 300 301 301 301 300 299 299 301 300 295 293 290 290 296 298 300 300 301 300 298 296 296 295 292 291 290 288 286 286 286 286 286 286 285 286 285 285 285 285 284 283
292 296 298 298 299 298 299 299 299 301 300 296 296 297 298 298 298 298 298 299 301 300 298 297 297 296 293 291 289 287 286 286 286 286 286 285 284 285 286 284 286 285 284 284
289 297 296 295 296 298 296 296 297 298 298 298 298 298 299 298 299 299 298 298 297 298 298 298 297 294 292 291 290 289 287 287 286 286 286 285 283 281 284 285 286 287 286 285
296 301 298 298 297 297 296 296 296 296 296 295 296 297 297 297 298 297 299 297 294 294 293 293 294 292 291 290 290 289 287 287 286 286 286 285 283 281 278 281 285 286 286 285
299 299 295 295 293 296 296 295 296 294 294 293 293 293 293 292 293 293 292 294 295 293 289 288 289 288 287 288 287 287 287 286 287 286 286 285 285 283 280 277 275 276 283 284
296 297 296 295 293 293 294 293 292 290 291 290 291 291 291 290 290 290 291 292 293 292 289 288 287 286 287 287 287 286 286 286 286 286 286 286 285 282 280 279 279 278 280 281
292 293 293 291 290 290 290 291 290 290 290 291 290 290 291 291 291 291 290 289 289 287 287 287 287 286 286 286 285 286 286 286 286 286 285 285 284 283 282 281 279 278 278 278
286 286 288 288 288 289 289 290 290 290 292 291 291 292 293 291 289 287 286 287 287 287 286 286 286 286 286 286 286 286 286 285 285 285 285 284 283 282 282 281 279 279 279 279
291 291 290 290 289 290 292 293 292 292 291 291 286 284 283 284 285 285 284 285 285 285 285 285 285 285 286 286 286 286 285 285 284 284 283 283 284 283 282 281 280 280 278 278
291 289 289 290 290 291 291 292 290 289 285 286 284 281 282 286 285 285 285 285 284 283 283 284 283 285 285 285 286 286 284 284 283 284 283 281 282 282 281 281 279 280 277 276
287 288 288 287 285 288 285 286 286 285 284 285 285 285 284 284 285 285 285 284 284 284 284 284 285 285 285 285 284 285 284 283 283 282 281 280 282 282 282 281 281 280 278 274
285 285 283 282 282 283 284 285 285 286 285 283 285 285 284 285 285 285 284 282 283 285 284 284 284 284 284 284 283 280 283 283 282 281 281 282 283 282 282 282 282 282 280 279
283 283 283 283 283 282 283 285 285 285 285 285 285 285 284 284 284 284 284 284 284 283 284 284 283 284 283 282 283 281 282 282 282 282 283 283 282 282 282 282 282 281 281 280
285 283 284 284 283 283 284 285 285 285 285 285 284 284 283 284 285 283 282 284 284 284 284 284 283 283 283 283 283 283 282 283 282 282 283 283 283 282 282 282 281 281 281 280
284 283 284 284 284 284 283 284 285 285 285 284 284 285 284 283 284 285 286 285 281 284 284 284 283 283 283 285 283 283 283 283 282 283 283 283 282 282 282 281 281 281 281 280
284 284 284 284 284 284 284 285 285 285 285 284 285 285 286 286 284 283 284 283 280 280 283 282 282 282 283 284 283 282 282 282 282 282 282 282 282 282 282 281 281 281 281 280
284 284 284 285 285 285 285 285 284 284 284 283 284 285 285 285 285 284 283 283 279 280 282 282 280 281 282 282 283 283 282 281 282 282 282 282 282 282 282 281 281 281 281 281
284 282 285 285 286 286 285 285 284 283 284 284 283 284 284 284 284 283 283 283 279 282 283 282 279 281 282 282 280 282 282 282 282 282 282 282 282 282 282 282 281 281 281 281
Wind_Speed
22 11 10 21 18 24 26 24 17 16 16 9 9 8 7 10 14 17 17 16 15 14 10 12 12 13 13 11 8 8 7 7 6 4 5 5 7 7 7 7 7 8 8 9
13 17 17 13 25 27 28 21 25 12 13 7 8 6 8 9 10 9 16 17 15 16 17 15 16 13 9 9 8 8 8 9 10 9 7 6 7 8 9 9 9 9 9 9
20 15 10 13 28 23 22 22 18 19 9 8 11 12 13 8 3 7 9 10 12 17 13 7 7 9 10 10 9 11 12 10 10 10 8 7 8 9 8 7 7 8 7 6
5 6 11 9 11 18 9 12 16 10 10 13 10 10 8 9 10 8 10 8 8 9 9 12 14 13 12 11 11 11 10 10 9 11 9 7 7 7 6 4 6 5 5 5
6 12 2 9 11 20 9 13 11 6 3 4 4 5 7 6 3 5 6 5 6 10 15 15 14 14 15 12 11 12 7 7 7 9 9 6 7 5 4 4 4 4 3 5
5 5 14 7 6 6 4 6 5 6 6 8 7 4 3 2 8 12 12 12 16 16 16 15 10 12 12 7 10 10 8 8 7 7 8 8 6 5 2 3 4 3 4 4
5 4 6 8 5 15 6 7 2 5 7 7 5 3 7 7 12 11 13 16 15 14 13 12 11 12 12 9 7 7 8 9 8 8 7 8 6 4 4 5 5 4 4 3
3 3 8 8 4 11 10 4 8 8 8 15 15 12 9 12 12 13 14 11 10 10 9 6 6 10 10 8 6 8 10 9 8 7 5 4 7 4 5 5 5 4 4 3
9 8 7 1 6 8 9 7 5 10 11 16 15 12 10 8 9 9 12 11 10 11 10 7 6 8 10 10 10 10 9 8 7 6 5 5 5 4 4 5 4 4 4 4
8 8 7 4 6 5 8 8 9 9 12 12 12 9 6 5 7 8 10 10 10 11 9 8 7 8 10 13 11 10 9 7 5 5 5 4 3 3 3 4 5 5 4 4
3 3 6 5 8 8 8 8 13 10 9 12 14 9 9 7 6 6 6 7 11 11 10 10 10 11 12 13 12 9 8 7 6 4 4 5 3 2 3 1 4 5 4 5
7 8 8 5 9 10 12 11 11 15 11 8 8 9 8 7 6 6 5 5 6 7 9 11 11 12 13 14 15 13 10 8 7 6 6 6 5 5 9 6 4 7 8 6
6 8 7 11 10 9 12 11 10 10 10 9 6 8 8 5 5 6 6 7 9 8 7 7 11 12 12 13 13 12 9 7 5 3 4 5 6 5 6 5 9 7 10 10
6 14 11 10 10 9 11 10 11 10 8 8 8 7 8 8 7 7 7 7 8 8 9 9 11 10 7 9 10 9 8 9 6 6 6 5 6 6 6 5 3 1 5 9
9 8 11 12 10 8 11 10 11 9 8 8 7 8 7 7 6 4 5 5 7 10 10 10 11 6 6 10 11 10 8 6 6 6 6 6 5 6 6 6 5 4 3 4
12 14 14 14 11 9 11 8 9 6 7 6 8 7 6 6 9 8 8 7 8 7 8 10 9 6 6 8 10 6 6 8 6 5 5 5 6 7 6 6 6 5 4 4
13 8 9 9 9 7 7 8 8 8 7 7 7 7 10 11 9 9 8 7 7 6 7 10 8 7 7 6 7 4 4 4 5 5 5 6 6 6 6 6 6 5 5 5
10 10 8 8 8 8 7 6 7 8 8 10 9 8 8 8 7 7 6 7 7 7 5 6 7 7 7 8 7 5 5 5 4 5 6 7 6 6 6 6 7 6 5 7
12 12 10 11 8 8 7 6 8 10 9 10 9 8 7 7 6 6 6 7 7 7 3 5 8 7 7 7 7 5 5 5 5 5 5 6 5 6 6 6 6 6 7 5
11 9 9 9 10 10 9 8 9 10 8 10 10 9 8 5 5 6 5 5 4 3 6 7 7 7 6 6 6 5 6 6 5 5 5 4 5 6 5 7 7 7 7 5
8 8 9 8 9 8 7 6 7 9 8 7 8 7 8 7 6 7 7 4 2 7 6 8 5 5 4 5 4 4 5 5 6 5 5 5 6 6 6 6 6 7 7 6
7 8 8 8 7 7 6 6 6 6 7 8 8 8 9 6 6 4 2 4 3 6 4 3 3 6 5 7 4 4 5 5 4 5 5 5 6 6 6 6 6 6 6 5
7 8 8 8 7 6 5 5 6 8 8 9 9 9 6 5 5 5 4 4 5 5 3 4 6 7 7 4 5 5 6 5 5 5 5 5 6 6 6 6 5 6 6 5
6 6 5 6 7 6 7 5 7 7 7 7 8 6 7 5 2 2 4 8 7 6 4 5 6 7 8 4 5 5 5 5 5 5 5 6 5 5 5 6 6 5 5 6
6 6 6 6 6 4 7 6 7 7 8 7 6 4 5 3 4 3 6 5 7 6 4 6 7 8 5 5 5 5 5 5 5 5 5 5 6 6 6 6 6 6 5 6
6 4 3 4 4 5 5 5 5 5 6 5 4 3 3 3 4 5 4 6 5 5 4 4 3 4 4 3 5 6 5 5 5 5 5 5 5 6 6 6 6 6 6 6
5 5 4 3 5 6 6 5 6 5 4 5 4 4 4 4 4 4 5 5 4 5 5 4 4 6 5 5 4 5 5 5 6 5 5 5 5 5 6 6 6 6 6 6
Wind_Direction
233 249 228 220 212 209 210 220 209 217 222 215 197 183 175 193 185 190 190 191 189 186 186 184 179 179 183 182 157 141 133 125 141 115 83 79 93 81 79 69 62 57 47 40
219 221 241 236 229 217 221 221 227 205 214 191 212 216 210 205 185 180 201 195 187 187 188 184 181 180 149 140 130 112 110 102 96 80 65 72 78 74 65 60 57 57 50 53
224 207 204 230 225 211 222 226 210 213 201 199 228 214 204 209 242 191 186 188 191 194 181 152 133 116 120 120 108 100 105 104 101 94 72 41 60 59 57 48 51 56 51 63
177 113 212 254 202 228 217 237 222 203 179 205 201 212 178 174 172 191 182 168 144 122 112 110 111 111 107 95 86 85 83 85 79 89 91 79 74 73 67 59 57 55 53 63
160 200 14 260 230 195 169 246 240 170 184 189 167 137 47 34 118 172 173 135 121 119 115 111 112 113 105 98 98 93 92 79 84 97 94 92 91 95 88 91 79 70 63 78
151 167 210 195 222 119 102 268 217 200 175 141 116 166 190 339 97 89 92 106 113 111 111 108 116 106 101 109 116 127 134 152 139 135 124 102 108 108 102 95 96 93 76 81
140 155 274 249 171 107 126 231 56 127 138 138 122 160 138 103 84 92 101 109 112 114 126 139 142 134 139 155 176 121 116 102 105 103 117 122 128 129 120 108 105 94 104 95
134 138 258 206 151 138 201 182 125 98 110 106 115 112 108 108 108 109 111 105 102 104 106 109 103 122 121 121 125 110 106 115 111 109 109 132 128 118 123 128 124 127 136 117
186 199 238 143 147 148 144 142 130 114 129 130 127 126 120 113 117 125 119 119 118 121 117 123 127 124 141 136 121 113 107 108 114 125 135 132 122 136 140 142 146 167 169 150
151 201 207 193 74 114 131 132 121 115 121 126 123 123 117 117 122 128 134 135 135 136 138 132 131 125 123 135 127 117 116 127 137 137 138 127 113 152 156 184 187 176 178 161
186 252 115 71 140 139 104 107 105 99 113 123 126 137 129 136 136 130 132 150 149 150 152 159 155 140 135 138 131 129 132 140 143 145 149 132 110 213 188 165 188 171 170 166
192 177 131 155 132 123 114 115 119 119 114 114 120 136 144 148 152 145 137 105 116 146 159 167 153 136 142 144 151 153 156 161 168 167 174 161 150 98 53 88 95 151 143 142
151 156 133 142 135 136 123 117 109 110 122 122 137 149 144 139 141 142 154 129 113 112 101 104 124 139 144 153 156 156 153 153 154 152 178 158 157 144 130 69 70 99 120 128
128 121 127 146 142 129 122 116 111 103 108 111 102 84 104 110 112 112 114 122 136 118 104 105 120 135 150 151 146 148 146 153 156 165 181 178 176 160 144 143 135 57 102 126
121 107 116 114 102 107 123 118 109 114 113 103 97 100 98 97 97 94 97 98 110 115 117 123 131 126 131 150 150 153 154 160 167 175 176 166 150 139 147 153 146 141 115 112
109 108 116 124 126 117 114 113 117 127 113 111 111 106 116 113 82 74 45 43 116 136 137 134 135 129 120 133 138 137 128 138 148 153 149 147 147 151 149 142 144 145 147 151
100 100 111 104 115 116 122 128 135 132 133 123 112 90 96 93 84 80 72 70 84 106 127 140 138 141 137 136 131 130 126 138 143 147 160 157 151 149 145 144 149 159 163 155
88 80 99 111 115 109 98 117 128 120 108 107 99 98 90 89 109 116 115 110 100 100 114 133 136 138 140 142 137 135 138 149 156 169 175 164 160 149 148 151 157 161 152 167
85 89 80 79 71 80 65 92 99 107 108 118 115 107 100 112 127 128 129 135 143 139 148 138 126 129 137 138 135 140 140 162 170 160 159 143 138 145 150 158 154 157 160 168
85 87 87 81 64 72 82 58 88 101 110 118 116 113 113 113 127 134 143 135 132 135 138 136 132 131 131 144 142 144 145 156 160 147 143 138 146 151 150 159 160 158 164 172
113 101 96 94 97 84 88 101 108 127 124 122 121 122 132 134 124 127 115 107 85 134 151 146 138 131 133 141 134 130 139 142 147 149 154 159 153 153 160 163 161 158 162 176
106 109 118 120 112 111 121 131 129 127 120 118 120 124 136 121 115 93 90 133 133 140 141 137 134 142 152 143 144 143 138 142 148 149 154 152 153 156 158 158 160 156 159 167
114 131 137 135 126 117 124 127 137 147 139 137 137 137 142 143 143 129 121 143 140 161 160 158 154 162 155 142 158 150 148 150 152 157 158 155 155 157 155 157 155 153 154 158
120 116 117 114 118 129 130 127 133 122 126 127 128 139 148 161 143 109 127 150 149 161 160 155 163 158 151 158 150 153 152 151 155 158 157 155 155 152 154 156 156 153 152 154
124 133 138 139 144 135 123 118 110 116 120 122 133 137 140 133 127 149 133 130 137 147 140 163 157 157 164 156 150 155 153 155 158 159 161 160 161 162 162 162 161 159 160 161
127 133 158 166 128 131 128 129 128 129 128 129 121 121 82 100 112 122 129 138 142 150 146 149 146 153 163 163 164 163 163 161 166 170 165 166 165 164 164 162 161 162 164 165
151 161 165 135 138 144 151 147 140 138 136 140 132 137 134 131 136 140 142 148 155 162 165 167 162 163 184 192 179 164 166 168 170 169 168 167 165 168 167 167 165 166 164 164